SL-14 DEB, 45304

Orbit data source: Space-Track

SL-14 DEB, 45304 is space debris in LEO originally from a launch on Thu, 15 Aug 1991 UTC launched from the Plesetsk Missile And Space Complex (PKMTR). Debris objects in space refer to the collection of defunct objects orbiting the Earth. Examples of debris include non-operational satellites, rocket bodies, and fragments generated from explosions, collisions, or faulty payload assembly.

Loading next visibility...
Identifier
45304, 1991-056AS
Orbit
LEO
Country
Flag of CISCIS
Related business
Manufacturer
Unknown
Mission
Spacecraft
Bus & Motor
Unknown
Mass
Unknown
Launch date (UTC)
1991-08-15 (34 years ago)
Launch vehicle
Unknown
Launch site
Plesetsk Missile And Space Complex (PKMTR)
Object type
Payload
Rocket body
Debris
Shape & HBR
Unknown shape, 0.1 m
Radar Cross Section
Small (<0.1 m²)

Expand to show TLE details & history
Last TLE update: 2 days ago

TLE from 2 days ago
0 SL-14 DEB
1 45304U 91056AS  25285.61522365  .00003734  00000-0  87274-2 0  9996
2 45304  82.6798 353.0613 0102365 122.7012 238.4035 13.22078856269780
Epoch: 2025-10-12T14:45Z
TLE epoch observation values (Epoch: 2025-10-12T14:45:55.323Z)
Latitude
-0.00004°
Longitude
110.15097°
Altitude
1,220.705 km
Speed
7.224 km/s
True Right ascension
23h 32m 14s
True Declination
0° 00' 00"
Sunlit
Object was in full shadow at epoch
Visualization orbit readout
Latitude
Unknown
Longitude
Unknown
Altitude
Unknown
Speed
Unknown
Apparent Right ascension
Unknown
Apparent Declination
Unknown
Sunlit
N/A
Visualization observer readout
Local Sidereal Time
10:00:04
Azimuth
Unknown
Elevation
Unknown
Doppler factor
Unknown
Orbital elements
Apogee altitude
1,251.33 km
Perigee altitude
1,096.714 km
Semi-major axis
7,552.159 km
Eccentricity
0.01024
Inclination
82.6798°
RAAN
353.0613°
Arg. of periapsis
122.7012°
True anomaly
237.41108°
Mean anomaly
238.4035°
Eccentric anomaly
237.90662°
Mean motion
3.30702 °/min
Orbital period
108.86 mins
BSTAR
0.0087274
Loading maneuver chart data...
Computing Atmospheric mass density...
Loading historical data...
Loading historical data...
Loading historical data...
Loading historical data...
Loading historical data...
Loading historical data...
Loading historical data...

Documentation

Showing up to 5 results
|